SWR7A EGLC-LSZH

Flight info

Callsign SWR7A
Flight time 1h 16m
Altitude 29000
Route SOQQA M87 UMTUM L9 KONAN UL607 REMBA DCT LIRSU DCT KRH M150 LAMGO/N0429F270 T721 RILAX
Aircraft A20N/M-SDE2E3FGHIRWXY/LB1

Departure

Time 2026-04-26 07:17
Airport London City Airport (EGLC)

Arrival

Time 2026-04-26 08:33
Airport Zürich Airport (LSZH)
Time Latitude Longitude Altitude Speed Heading
2026-04-26 07:17 51.50749 0.11312 2209 ft 156 kts 59°
2026-04-26 07:17 51.51492 0.12536 3010 ft 156 kts 44°
2026-04-26 07:17 51.52228 0.13790 3503 ft 165 kts 47°
2026-04-26 07:17 51.53231 0.14835 3878 ft 184 kts 21°
2026-04-26 07:18 51.54459 0.15579 4361 ft 197 kts 25°
2026-04-26 07:18 51.55587 0.16845 4874 ft 207 kts 56°
2026-04-26 07:18 51.55895 0.19157 5270 ft 223 kts 94°
2026-04-26 07:18 51.55918 0.21641 5988 ft 229 kts 79°
2026-04-26 07:19 51.56307 0.24213 6485 ft 247 kts 75°
2026-04-26 07:19 51.56861 0.26888 7003 ft 263 kts 63°
2026-04-26 07:19 51.57744 0.29549 7607 ft 277 kts 62°
2026-04-26 07:19 51.58628 0.32274 8460 ft 280 kts 63°
2026-04-26 07:20 51.59479 0.35074 9316 ft 282 kts 63°
2026-04-26 07:20 51.60241 0.37970 10064 ft 288 kts 74°
2026-04-26 07:20 51.60473 0.41183 10772 ft 295 kts 92°
2026-04-26 07:20 51.60213 0.44511 11215 ft 311 kts 98°
2026-04-26 07:21 51.59827 0.48041 11584 ft 329 kts 99°
2026-04-26 07:21 51.59377 0.51734 11908 ft 347 kts 105°
2026-04-26 07:21 51.58284 0.55241 12202 ft 364 kts 128°
2026-04-26 07:21 51.56343 0.57942 12669 ft 374 kts 151°
2026-04-26 07:22 51.53899 0.59300 13350 ft 375 kts 171°
2026-04-26 07:22 51.51346 0.59900 14068 ft 378 kts 172°
2026-04-26 07:22 51.48726 0.60507 14728 ft 382 kts 172°
2026-04-26 07:22 51.46092 0.61144 15350 ft 386 kts 172°
2026-04-26 07:23 51.43475 0.61840 15939 ft 391 kts 168°
2026-04-26 07:23 51.40916 0.63439 16494 ft 398 kts 149°
2026-04-26 07:23 51.38756 0.66208 17083 ft 403 kts 134°
2026-04-26 07:23 51.36971 0.69642 17673 ft 406 kts 129°
2026-04-26 07:24 51.35209 0.73196 18213 ft 411 kts 129°
2026-04-26 07:24 51.33450 0.76741 18740 ft 415 kts 129°
2026-04-26 07:24 51.31629 0.80375 19269 ft 419 kts 129°
2026-04-26 07:24 51.29807 0.83981 19791 ft 422 kts 129°
2026-04-26 07:25 51.27956 0.87624 20290 ft 426 kts 129°
2026-04-26 07:25 51.26084 0.91293 20783 ft 430 kts 129°
2026-04-26 07:25 51.24183 0.95012 21276 ft 434 kts 129°
2026-04-26 07:25 51.22346 0.98802 21744 ft 437 kts 123°
2026-04-26 07:26 51.20888 1.03044 22203 ft 441 kts 113°
2026-04-26 07:26 51.19912 1.07638 22652 ft 443 kts 103°
2026-04-26 07:26 51.19253 1.12463 23110 ft 446 kts 100°
2026-04-26 07:26 51.18657 1.17328 23553 ft 449 kts 100°
2026-04-26 07:27 51.18051 1.22214 24004 ft 452 kts 100°
2026-04-26 07:27 51.17426 1.27084 24432 ft 455 kts 101°
2026-04-26 07:27 51.16788 1.32027 24844 ft 458 kts 99°
2026-04-26 07:27 51.16280 1.37007 25256 ft 460 kts 96°
2026-04-26 07:28 51.15947 1.42081 25788 ft 459 kts 93°
2026-04-26 07:28 51.15700 1.47091 26372 ft 457 kts 92°
2026-04-26 07:28 51.15465 1.52123 26933 ft 456 kts 92°
2026-04-26 07:28 51.15230 1.57125 27470 ft 455 kts 92°
2026-04-26 07:29 51.14991 1.62117 27955 ft 455 kts 92°
2026-04-26 07:29 51.14746 1.67150 28357 ft 456 kts 93°
2026-04-26 07:29 51.14499 1.72159 28724 ft 458 kts 93°
2026-04-26 07:29 51.14247 1.77191 29099 ft 460 kts 92°
2026-04-26 07:30 51.13991 1.82264 29269 ft 462 kts 92°
2026-04-26 07:30 51.13473 1.92381 29273 ft 462 kts 92°
2026-04-26 07:31 51.12941 2.02552 29279 ft 462 kts 92°
2026-04-26 07:31 51.12401 2.12712 29287 ft 462 kts 92°
2026-04-26 07:32 51.11853 2.22846 29294 ft 463 kts 92°
2026-04-26 07:32 51.11293 2.33055 29293 ft 463 kts 92°
2026-04-26 07:33 51.10728 2.43197 29296 ft 462 kts 92°
2026-04-26 07:33 51.10152 2.53335 29293 ft 462 kts 92°
2026-04-26 07:34 51.09428 2.63400 29297 ft 463 kts 97°
2026-04-26 07:34 51.07999 2.73365 29299 ft 456 kts 104°
2026-04-26 07:35 51.06240 2.83018 29299 ft 453 kts 104°
2026-04-26 07:35 51.04484 2.92602 29293 ft 455 kts 104°
2026-04-26 07:36 51.02724 3.02199 29295 ft 453 kts 104°
2026-04-26 07:36 51.00969 3.11739 29287 ft 452 kts 104°
2026-04-26 07:37 50.99211 3.21257 29282 ft 452 kts 104°
2026-04-26 07:37 50.97436 3.30809 29281 ft 452 kts 104°
2026-04-26 07:38 50.95659 3.40326 29278 ft 452 kts 104°
2026-04-26 07:38 50.93874 3.49837 29277 ft 452 kts 104°
2026-04-26 07:39 50.92076 3.59371 29280 ft 452 kts 104°
2026-04-26 07:39 50.90271 3.68849 29274 ft 452 kts 105°
2026-04-26 07:40 50.88437 3.78349 29276 ft 451 kts 105°
2026-04-26 07:40 50.86603 3.87800 29277 ft 451 kts 105°
2026-04-26 07:41 50.84765 3.97233 29276 ft 451 kts 105°
2026-04-26 07:41 50.82916 4.06693 29277 ft 451 kts 105°
2026-04-26 07:42 50.81065 4.16115 29281 ft 451 kts 105°
2026-04-26 07:42 50.79207 4.25518 29281 ft 451 kts 105°
2026-04-26 07:43 50.77339 4.34936 29283 ft 451 kts 106°
2026-04-26 07:43 50.75464 4.44340 29283 ft 451 kts 106°
2026-04-26 07:44 50.73574 4.53772 29281 ft 450 kts 106°
2026-04-26 07:44 50.71704 4.63114 29278 ft 450 kts 105°
2026-04-26 07:45 50.69893 4.72515 29273 ft 450 kts 106°
2026-04-26 07:45 50.68070 4.81916 29274 ft 450 kts 106°
2026-04-26 07:46 50.66109 4.91264 29271 ft 450 kts 111°
2026-04-26 07:46 50.63576 5.00221 29270 ft 450 kts 115°
2026-04-26 07:47 50.60894 5.09093 29272 ft 450 kts 115°
2026-04-26 07:47 50.58221 5.17916 29273 ft 449 kts 115°
2026-04-26 07:48 50.55534 5.26775 29275 ft 449 kts 115°
2026-04-26 07:48 50.52851 5.35592 29267 ft 449 kts 115°
2026-04-26 07:49 50.50172 5.44372 29268 ft 449 kts 115°
2026-04-26 07:49 50.47472 5.53182 29265 ft 449 kts 115°
2026-04-26 07:50 50.43409 5.66380 29256 ft 449 kts 116°
2026-04-26 07:50 50.40687 5.75188 29249 ft 449 kts 116°
2026-04-26 07:51 50.37976 5.83924 29240 ft 448 kts 116°
2026-04-26 07:51 50.35252 5.92676 29230 ft 448 kts 116°
2026-04-26 07:52 50.32519 6.01423 29229 ft 449 kts 116°
2026-04-26 07:52 50.29794 6.10111 29230 ft 448 kts 116°
2026-04-26 07:53 50.27051 6.18833 29237 ft 448 kts 116°
2026-04-26 07:53 50.24300 6.27550 29236 ft 448 kts 116°
2026-04-26 07:54 50.21537 6.36268 29231 ft 449 kts 116°
2026-04-26 07:54 50.18539 6.44710 29233 ft 448 kts 123°
2026-04-26 07:55 50.14813 6.52468 29233 ft 448 kts 130°
2026-04-26 07:55 50.10806 6.59867 29242 ft 448 kts 130°
2026-04-26 07:56 50.06811 6.67220 29247 ft 448 kts 131°
2026-04-26 07:56 50.02777 6.74642 29251 ft 448 kts 131°
2026-04-26 07:57 49.98786 6.81969 29254 ft 448 kts 131°
2026-04-26 07:57 49.94755 6.89356 29253 ft 448 kts 131°
2026-04-26 07:58 49.90731 6.96706 29254 ft 448 kts 131°
2026-04-26 07:58 49.86715 7.04019 29252 ft 448 kts 131°
2026-04-26 07:59 49.82666 7.11373 29251 ft 448 kts 131°
2026-04-26 07:59 49.78643 7.18659 29248 ft 448 kts 131°
2026-04-26 08:00 49.74596 7.25969 29252 ft 448 kts 131°
2026-04-26 08:00 49.70563 7.33233 29244 ft 447 kts 131°
2026-04-26 08:01 49.66533 7.40470 29244 ft 447 kts 132°
2026-04-26 08:01 49.62470 7.47751 29240 ft 447 kts 132°
2026-04-26 08:02 49.58425 7.54971 29239 ft 447 kts 132°
2026-04-26 08:02 49.54378 7.62178 29229 ft 447 kts 132°
2026-04-26 08:03 49.50301 7.69421 29231 ft 447 kts 133°
2026-04-26 08:03 49.46262 7.76577 29230 ft 447 kts 133°
2026-04-26 08:04 49.42176 7.83796 29229 ft 447 kts 133°
2026-04-26 08:04 49.38126 7.90929 29233 ft 447 kts 133°
2026-04-26 08:05 49.34026 7.98129 29234 ft 447 kts 133°
2026-04-26 08:05 49.29958 8.05258 29234 ft 447 kts 133°
2026-04-26 08:06 49.25894 8.12360 29245 ft 447 kts 133°
2026-04-26 08:06 49.21806 8.19485 29244 ft 447 kts 133°
2026-04-26 08:07 49.17694 8.26628 29247 ft 447 kts 133°
2026-04-26 08:07 49.13615 8.33701 29242 ft 447 kts 133°
2026-04-26 08:08 49.09497 8.40816 29242 ft 447 kts 133°
2026-04-26 08:08 49.05397 8.47889 29240 ft 447 kts 133°
2026-04-26 08:09 49.01306 8.54924 29242 ft 447 kts 133°
2026-04-26 08:09 48.97213 8.62082 29240 ft 448 kts 131°
2026-04-26 08:10 48.93265 8.69338 29234 ft 447 kts 132°
2026-04-26 08:10 48.91125 8.72720 29213 ft 444 kts 144°
2026-04-26 08:10 48.88504 8.75091 29225 ft 442 kts 160°
2026-04-26 08:11 48.85543 8.76313 29224 ft 440 kts 175°
2026-04-26 08:11 48.82496 8.76308 29224 ft 436 kts 190°
2026-04-26 08:11 48.76546 8.74700 29220 ft 436 kts 193°
2026-04-26 08:12 48.70598 8.73061 29213 ft 436 kts 192°
2026-04-26 08:12 48.64613 8.71450 29208 ft 437 kts 192°
2026-04-26 08:13 48.58675 8.69867 29203 ft 437 kts 192°
2026-04-26 08:13 48.52665 8.68273 29201 ft 438 kts 192°
2026-04-26 08:14 48.46708 8.66698 29203 ft 437 kts 192°
2026-04-26 08:14 48.40741 8.65124 29199 ft 438 kts 192°
2026-04-26 08:15 48.34746 8.63458 29198 ft 437 kts 194°
2026-04-26 08:15 48.28824 8.61640 29195 ft 438 kts 194°
2026-04-26 08:16 48.22835 8.59821 29194 ft 438 kts 193°
2026-04-26 08:16 48.16900 8.58039 29194 ft 438 kts 193°
2026-04-26 08:17 48.10919 8.56253 29191 ft 438 kts 193°
2026-04-26 08:17 48.04962 8.54482 29194 ft 438 kts 193°
2026-04-26 08:18 47.99008 8.52715 29194 ft 439 kts 193°
2026-04-26 08:18 47.95978 8.52111 29169 ft 442 kts 181°
2026-04-26 08:18 47.92983 8.52896 29145 ft 445 kts 162°
2026-04-26 08:19 47.90224 8.55002 28605 ft 449 kts 149°
2026-04-26 08:19 47.87620 8.57567 27493 ft 458 kts 148°
2026-04-26 08:19 47.84976 8.60209 26273 ft 458 kts 148°
2026-04-26 08:19 47.82341 8.62802 24578 ft 460 kts 148°
2026-04-26 08:20 47.79680 8.65386 22801 ft 459 kts 148°
2026-04-26 08:20 47.77098 8.67884 21571 ft 446 kts 148°
2026-04-26 08:20 47.74526 8.70367 20277 ft 436 kts 148°
2026-04-26 08:20 47.72046 8.72755 18924 ft 428 kts 148°
2026-04-26 08:21 47.69581 8.75094 17559 ft 421 kts 150°
2026-04-26 08:21 47.66917 8.76615 16219 ft 413 kts 172°
2026-04-26 08:21 47.64125 8.76499 14937 ft 403 kts 195°
2026-04-26 08:21 47.61646 8.74802 13694 ft 393 kts 218°
2026-04-26 08:22 47.59924 8.71818 12739 ft 377 kts 244°
2026-04-26 08:22 47.59153 8.68267 12042 ft 356 kts 260°
2026-04-26 08:22 47.58660 8.64811 11400 ft 340 kts 259°
2026-04-26 08:22 47.58466 8.61435 10751 ft 324 kts 281°
2026-04-26 08:23 47.59258 8.58491 10423 ft 297 kts 307°
2026-04-26 08:23 47.60633 8.56356 10294 ft 278 kts 321°
2026-04-26 08:23 47.62082 8.54535 10102 ft 274 kts 321°
2026-04-26 08:23 47.63511 8.52699 9744 ft 274 kts 320°
2026-04-26 08:24 47.64938 8.50807 9409 ft 273 kts 320°
2026-04-26 08:24 47.66322 8.48935 9089 ft 271 kts 319°
2026-04-26 08:24 47.67705 8.47045 8779 ft 270 kts 319°
2026-04-26 08:24 47.69087 8.45151 8465 ft 269 kts 319°
2026-04-26 08:25 47.70442 8.43289 8160 ft 267 kts 319°
2026-04-26 08:25 47.71814 8.41403 7850 ft 266 kts 319°
2026-04-26 08:25 47.73141 8.39538 7534 ft 266 kts 314°
2026-04-26 08:25 47.74023 8.37166 7184 ft 268 kts 283°
2026-04-26 08:26 47.73996 8.34426 6860 ft 269 kts 254°
2026-04-26 08:26 47.73099 8.32002 6535 ft 268 kts 228°
2026-04-26 08:26 47.71823 8.30020 6252 ft 265 kts 225°
2026-04-26 08:26 47.70567 8.28123 6211 ft 251 kts 221°
2026-04-26 08:27 47.69106 8.26908 6142 ft 237 kts 186°
2026-04-26 08:27 47.67508 8.27153 5900 ft 238 kts 153°
2026-04-26 08:27 47.66192 8.28622 5438 ft 240 kts 132°
2026-04-26 08:27 47.65014 8.30395 4998 ft 245 kts 133°
2026-04-26 08:28 47.63795 8.32153 4694 ft 241 kts 134°
2026-04-26 08:28 47.62616 8.33878 4305 ft 237 kts 133°
2026-04-26 08:28 47.61458 8.35547 4114 ft 229 kts 134°
2026-04-26 08:28 47.60331 8.37117 4042 ft 217 kts 135°
2026-04-26 08:29 47.59254 8.38585 4036 ft 204 kts 135°
2026-04-26 08:29 47.58246 8.39951 4046 ft 189 kts 135°
2026-04-26 08:29 47.57293 8.41241 3788 ft 182 kts 135°
2026-04-26 08:29 47.56397 8.42456 3531 ft 171 kts 134°
2026-04-26 08:30 47.55549 8.43608 3314 ft 159 kts 134°
2026-04-26 08:30 47.54760 8.44680 3116 ft 151 kts 134°
2026-04-26 08:30 47.54013 8.45696 2906 ft 142 kts 134°
2026-04-26 08:30 47.53299 8.46673 2738 ft 141 kts 134°
2026-04-26 08:31 47.52572 8.47663 2539 ft 141 kts 136°
2026-04-26 08:31 47.51839 8.48619 2374 ft 140 kts 136°
2026-04-26 08:31 47.51116 8.49588 2197 ft 141 kts 135°
2026-04-26 08:31 47.50407 8.50593 2019 ft 142 kts 135°
2026-04-26 08:32 47.49691 8.51573 1863 ft 142 kts 136°
2026-04-26 08:32 47.48965 8.52571 1662 ft 141 kts 135°
2026-04-26 08:32 47.48245 8.53565 1439 ft 141 kts 136°
2026-04-26 08:32 47.47554 8.54479 1382 ft 122 kts 134°
2026-04-26 08:33 47.47060 8.55174 1383 ft 73 kts 139°
2026-04-26 08:33 47.46808 8.55522 1385 ft 26 kts 136°
2026-04-26 08:33 47.46664 8.55653 1387 ft 23 kts 168°
2026-04-26 08:33 47.46509 8.55709 1387 ft 22 kts 169°
2026-04-26 08:34 47.46380 8.55761 1389 ft 17 kts 148°
2026-04-26 08:34 47.46301 8.55870 1391 ft 14 kts 137°
2026-04-26 08:34 47.46231 8.55964 1395 ft 12 kts 137°
2026-04-26 08:34 47.46167 8.56051 1397 ft 17 kts 137°
2026-04-26 08:35 47.46041 8.56223 1400 ft 23 kts 135°
2026-04-26 08:35 47.45950 8.56312 1403 ft 14 kts 173°
2026-04-26 08:35 47.45832 8.56296 1402 ft 12 kts 184°
2026-04-26 08:35 47.45752 8.56284 1404 ft 12 kts 186°
2026-04-26 08:36 47.45628 8.56265 1406 ft 18 kts 186°
2026-04-26 08:36 47.45514 8.56245 1411 ft 14 kts 192°
2026-04-26 08:36 47.45480 8.56156 1410 ft 11 kts 269°
2026-04-26 08:36 47.45489 8.56022 1404 ft 15 kts 275°
2026-04-26 08:37 47.45496 8.55917 1402 ft 6 kts 269°
2026-04-26 08:37 47.45466 8.55869 1401 ft 7 kts 173°
2026-04-26 08:37 47.45423 8.55872 1401 ft 4 kts 184°
2026-04-26 08:37 47.45419 8.55872 1401 ft 0 kts 185°